Location: Unspecified
(0.0000°N, 0.0000°E)
Time: 19:05:50
(UTC+00:00)

deb OV3-4 - Pass Details

Date: 21 April 2026
Orbit: 581 x 4210 km, 40.6° (Epoch: 13 May)

Event Time Altitude Azimuth Distance (km) Brightness Sun altitude
Exits shadow 03:36:58 - 168° (SSE) 3,368 ? -34.6°
Reaches altitude 10° 03:39:04 10° 153° (SSE) 3,256 ? -34.1°
Maximum altitude 03:42:34 13° 127° (SE) 3,487 ? -33.2°
Drops below altitude 10° 03:46:57 10° 103° (ESE) 4,304 ? -32.2°
Sets 03:54:48 0° 80° (E) 6,284 ? -30.3°
